Trinidad, CO

5:51 AM MDT on August 24, 2016 (GMT -0600)
Stokes

Weather History for KTAD - November, 2012

Change the Weather History Date:

Wednesday, November 14, 2012

  Actual Average Record
Temperature  
Mean Temperature 42 °F 41 °F  
Max Temperature 65 °F 57 °F 78 °F (1990)
Min Temperature 18 °F 26 °F 0 °F (1959)
Degree Days  
Heating Degree Days 23 24  
Month to date heating degree days 250 290  
Since 1 July heating degree days 718 791  
Cooling Degree Days 0 0  
Month to date cooling degree days 0 0  
Year to date cooling degree days 1175 719  
Moisture  
Dew Point 1 °F    
Average Humidity 26    
Maximum Humidity 45    
Minimum Humidity 7    
Precipitation  
Precipitation 0.00 in 0.02 in 0.46 in (1961)
Month to date precipitation T 0.38  
Year to date precipitation 12.98  
Sea Level Pressure  
Sea Level Pressure 30.16 in    
Wind  
Wind Speed 8 mph (West)    
Max Wind Speed 17 mph    
Max Gust Speed 20 mph    
Visibility 10 miles    
Events      
T = Trace of Precipitation, MM = Missing Value Source: NWS Daily Summary

Daily Weather History Graph

Daily Weather History Graph

Search for Another Location

Airport or City:

Trip Planner

Search our weather history database for the weather conditions in past years. The results will help you decide how hot, cold, wet, or windy it might be!

Date:

Astronomy

Nov. 14, 2012 Rise Set
Actual Time 6:35 AM MST 4:47 PM MST
Civil Twilight 6:08 AM MST 5:15 PM MST
Nautical Twilight 5:36 AM MST 5:46 PM MST
Astronomical Twilight 5:05 AM MST 6:17 PM MST
Moon 7:26 AM MST (11/14) 5:39 PM MST (11/14)
Length of Visible Light 11h 06m
Length of Day
10h 11m
New Moon, 1% of the Moon is Illuminated
Nov 14
New Moon
Nov 20
First Quarter
Nov 28
Full
Dec 6
Last Quarter
Dec 13
New

Hourly Weather History & Observations

Time (MST) Temp. Windchill Dew Point Humidity Pressure Visibility Wind Dir Wind Speed Gust Speed Precip Events Conditions
12:54 AM 28.9 °F 19.2 °F 5.0 °F 36% 30.24 in 10.0 mi WSW 11.5 mph - N/A   Clear
1:54 AM 27.0 °F 18.7 °F 5.0 °F 39% 30.24 in 10.0 mi WNW 8.1 mph - N/A   Clear
2:54 AM 24.1 °F 14.4 °F 5.0 °F 44% 30.24 in 10.0 mi WNW 9.2 mph - N/A   Clear
3:54 AM 19.0 °F 9.0 °F 1.9 °F 47% 30.25 in 10.0 mi NW 8.1 mph - N/A   Clear
4:54 AM 21.0 °F 14.6 °F 3.0 °F 46% 30.25 in 10.0 mi NW 4.6 mph - N/A   Clear
5:54 AM 21.9 °F 14.5 °F 3.0 °F 44% 30.28 in 10.0 mi WSW 5.8 mph - N/A   Clear
6:54 AM 26.1 °F 18.4 °F 5.0 °F 41% 30.28 in 10.0 mi WSW 6.9 mph - N/A   Clear
7:54 AM 39.0 °F 31.8 °F 7.0 °F 27% 30.26 in 10.0 mi West 11.5 mph - N/A   Clear
8:54 AM 45.0 °F 43.5 °F 8.1 °F 22% 30.25 in 10.0 mi South 3.5 mph - N/A   Clear
9:54 AM 52.0 °F - 6.1 °F 16% 30.21 in 10.0 mi ESE 4.6 mph - N/A   Clear
10:54 AM 55.0 °F - 6.1 °F 14% 30.16 in 10.0 mi ESE 6.9 mph - N/A   Clear
11:54 AM 59.0 °F - 5.0 °F 12% 30.10 in 10.0 mi Variable 4.6 mph - N/A   Clear
12:54 PM 62.1 °F - 3.0 °F 9% 30.05 in 10.0 mi Variable 3.5 mph - N/A   Clear
1:54 PM 63.0 °F - 1.9 °F 9% 30.04 in 10.0 mi East 6.9 mph - N/A   Clear
2:54 PM 64.0 °F - -0.0 °F 8% 30.04 in 10.0 mi ENE 6.9 mph - N/A   Clear
3:54 PM 57.9 °F - -0.9 °F 9% 30.07 in 10.0 mi ESE 3.5 mph - N/A   Clear
4:54 PM 57.0 °F - -2.9 °F 9% 30.07 in 10.0 mi East 3.5 mph - N/A   Clear
5:54 PM 43.0 °F 39.5 °F -2.9 °F 15% 30.13 in 10.0 mi WSW 5.8 mph - N/A   Clear
6:54 PM 37.0 °F 29.3 °F -2.9 °F 18% 30.15 in 10.0 mi NW 11.5 mph - N/A   Clear
7:54 PM 41.0 °F 35.2 °F -2.0 °F 16% 30.10 in 10.0 mi West 9.2 mph - N/A   Clear
8:54 PM 37.0 °F 28.1 °F -5.1 °F 17% 30.11 in 10.0 mi WSW 15.0 mph - N/A   Clear
9:54 PM 35.1 °F 26.9 °F -5.1 °F 18% 30.08 in 10.0 mi West 11.5 mph - N/A   Clear
10:54 PM 34.0 °F 24.6 °F -4.0 °F 20% 30.07 in 10.0 mi West 13.8 mph - N/A   Clear
11:54 PM 32.0 °F 21.6 °F -4.0 °F 21% 30.08 in 10.0 mi WNW 15.0 mph - N/A   Clear